星链-30090 (STARLINK-30090 )

导读 | 星芒AI

STARLINK-30090 是 SpaceX 星链(Starlink)卫星互联网项目中的第 30090 颗卫星。它属于星链计划的第二批卫星群,旨在通过低轨道卫星提供全球高速互联网服务。该卫星采用先进的推进和通信技术,具备自动避障功能,以确保在轨安全。其发射有助于扩大星链网络的覆盖范围,提升网络稳定性和连接速度,特别是在偏远和网络基础设施薄弱的地区。

基本信息
目录编号:
56293
目录名称:
STARLINK-30090
国际标识:
2023-056H
轨道中心:
EARTH
卫星名称:
星链-30090
卫星全名:
星链-30090 (STARLINK-30090 )
卫星状态:
在轨 (已飞行974 天)
发射日期:
2023-04-19 UTC
国别 :
美国 (US)
星等 :
--
轨道信息
数据来源 国际轨道数据
星历时间: 2025-12-18T13:15:54+0800
12小时前
查看轨道信息
半长轴: 6937.218km
偏心率: 0.0001016
轨道倾角: 43.001°
近地点辐角 265.357°
升交点赤经 293.383°
平近点角 94.716°
近地点: 558.378km
远地点: 559.788km
周期: 95.838分钟
每日圈数: 15.025356
详细信息
固有亮度:
5
最大亮度:
0.3
卫星平台:
Starlink v2.0 mini
覆盖范围:
全球
运营商:
太空探索技术公司
运营商所在国:
美国
制造商(研发单位):
太空探索技术公司
制造商所在国:
美国
使用方式:
暂无
卫星简介
星链(Starlink)计划是由太空探索技术公司(SpaceX)提出的一个巨型低轨卫星互联网星座项目,计划在2019年至2024年间在太空搭建由约1.2万颗卫星组成的“星链”网络,其中1584颗将部署在地球上空550千米处的近地轨道,并从2020年开始工作。该卫星仍在工作。
2D轨道图
3D轨道图
轨道高度分析图
轨道倾角分析图
轨道综合分析图
查看轨道综合分析图